Flag for India Weather past 2 weeks in Robertsganj, Uttar Pradesh, India

Now
93 °F

Haze.


Feels Like: 91 °F
Forecast: 81 / 109 °F
Wind: 6 mph from Southwest

Location: Varanasi / Babatpur

Current Time: May 23, 2015 at 8:42:56 AM

Latest Report: May 23, 2015 at 8:00 AM


Visibility: 2 mi

Pressure: 29.50 "Hg

Humidity: 28%

Dew point: 55 °F

Location of RobertsganjLocation

Historic Weather in Robertsganj — Graph

°F

Robertsganj temperature yesterday

Maximum temperature yesterday: 111 °F (at 1:00 PM)
Minimum temperature yesterday: 81 °F (at 4:00 AM)
Average temperature yesterday: 96 °F

Past Weeks' High & Low Weather Summary

 TemperatureHumidityPressure
High111 °F (May 22, 1:00 PM)75% (May 9, 12:00 AM)29.80 "Hg (May 9, 12:00 AM)
Low81 °F (May 13, 6:00 AM)12% (May 22, 1:00 PM)29.36 "Hg (May 18, 6:00 PM)
Average94 °F44%29.62 "Hg
* Reported May 8 7:00 AM — May 23 7:00 AM, Robertsganj, Weather by CustomWeather, © 2015

Note: Actual official high and low records may vary slightly from our data, if they occured in-between our weather recording intervals... More about our weather records

Advertising

Robertsganj weather history for previous 24 hours

 ConditionsComfort  
Time TempWeatherWind HumidityBarometerVisibility
7:00 AM
Sat, May 23
88 °FHaze.5 mph35%29.50 "Hg2 mi
6:00 AM84 °FHaze.5 mph37%29.47 "Hg2 mi
5:00 AM84 °FHaze.3 mph40%29.47 "Hg2 mi
12:00 AM91 °FHaze.3 mph28%29.47 "Hg2 mi
11:00 PM
Fri, May 22
93 °FHaze.5 mph24%29.47 "Hg3 mi
10:00 PM95 °FHaze.6 mph23%29.47 "Hg3 mi
9:00 PM93 °FHaze.5 mph28%29.47 "Hg3 mi
8:00 PM97 °FHaze.3 mph25%29.45 "Hg3 mi
7:00 PM100 °FHaze.2 mph21%29.45 "Hg3 mi
6:00 PM106 °FHaze.5 mph17%29.45 "Hg3 mi
2:00 PM111 °FClear.15 mph13%29.47 "Hg4 mi
1:00 PM111 °FClear.10 mph12%29.50 "Hg4 mi
12:00 PM109 °FHaze.9 mph14%29.53 "Hg3 mi
10:00 AM102 °FHaze.14 mph18%29.56 "Hg2 mi
9:00 AM97 °FHaze.6 mph23%29.56 "Hg2 mi
8:00 AM91 °FHaze.3 mph28%29.56 "Hg2 mi
Weather by CustomWeather, © 2015

See weather overviewHow to use our weather pages